Flag for Germany Weather past 2 weeks in Tuttlingen, Baden-Württemberg, Germany

Now
42 °F

Fog.


Feels Like: 39 °F
Forecast: 29 / 45 °F
Wind: 5 mph from Northwest

Location: Konstanz

Current Time: Oct 22, 2014 at 5:45:49 AM

Latest Report: Oct 22, 2014 at 5:00 AM


Visibility: 44 mi

Pressure: 30.05 "Hg

Humidity: 88%

Dew point: 39 °F

Location of TuttlingenLocation

Historic Weather in Tuttlingen — Graph

°F

Tuttlingen temperature yesterday

Maximum temperature yesterday: 65 °F (at 4:00 PM)
Minimum temperature yesterday: 48 °F (at 11:00 PM)
Average temperature yesterday: 59 °F

Past Weeks' High & Low Weather Summary

 TemperatureHumidityPressure
High76 °F (Oct 9, 5:00 PM)100% (Oct 9, 2:00 AM)30.27 "Hg (Oct 9, 2:00 AM)
Low44 °F (Oct 22, 4:00 AM)49% (Oct 9, 3:00 PM)29.69 "Hg (Oct 21, 8:00 PM)
Average59 °F86%29.94 "Hg
* Reported Oct 7 4:00 AM — Oct 22 4:00 AM, Tuttlingen, Weather by CustomWeather, © 2014

Note: Actual official high and low records may vary slightly from our data, if they occured in-between our weather recording intervals... More about our weather records

Advertising

Tuttlingen weather history for previous 24 hours

 ConditionsComfort  
Time TempWeatherWind HumidityBarometerVisibility
4:00 AM
Oct 22
44 °FOvercast.1 mph88%30.05 "Hg31 mi
3:00 AM45 °FPassing clouds.6 mph81%30.06 "Hg43 mi
2:00 AM46 °FLight rain. Passing clouds.5 mph77%30.06 "Hg16 mi
1:00 AM47 °FClear.3 mph75%30.06 "Hg43 mi
12:00 AM47 °FClear.6 mph77%30.05 "Hg43 mi
11:00 PM
Oct 21
48 °FLight rain. Overcast.9 mph86%30.03 "Hg7 mi
10:00 PM48 °FOvercast.6 mph82%29.93 "Hg43 mi
9:00 PM48 °FLight rain. Overcast.9 mph86%29.86 "Hg4 mi
8:00 PM61 °FThundershowers. Overcast.12 mph69%29.69 "Hg3 mi
7:00 PM58 °FPassing clouds.5 mph77%29.73 "Hg12 mi
6:00 PM63 °FSprinkles. Overcast.7 mph60%29.75 "Hg9 mi
5:00 PM64 °FPartly sunny.7 mph53%29.77 "Hg22 mi
4:00 PM65 °FPartly sunny.8 mph55%29.81 "Hg28 mi
3:00 PM64 °FOvercast.8 mph66%29.83 "Hg22 mi
2:00 PM62 °FSprinkles. Overcast.6 mph73%29.87 "Hg16 mi
1:00 PM62 °FOvercast.6 mph73%29.91 "Hg28 mi
12:00 PM62 °FPartly sunny.6 mph75%29.93 "Hg22 mi
11:00 AM62 °FPartly sunny.5 mph80%29.94 "Hg16 mi
10:00 AM58 °FLow clouds.3 mph89%29.97 "Hg11 mi
9:00 AM58 °FOvercast.3 mph89%29.96 "Hg6 mi
8:00 AM58 °FSprinkles. Overcast.3 mph90%29.96 "Hg10 mi
7:00 AM59 °FOvercast.3 mph87%29.96 "Hg19 mi
6:00 AM59 °FOvercast.3 mph89%29.97 "Hg19 mi
5:00 AM59 °FOvercast.2 mph91%29.98 "Hg28 mi
Weather by CustomWeather, © 2014

See weather overviewHow to use our weather pages